TimeEST,TemperatureF,Dew PointF,Humidity,Sea Level PressureIn,VisibilityMPH,Wind Direction,Wind SpeedMPH,Gust SpeedMPH,PrecipitationIn,Events,Conditions,WindDirDegrees,DateUTC
12:23 AM,30.2,24.8,80,29.90,10.0,NW,15.0,23.0,N/A,,Overcast,320,2013-11-27 05:23:00
12:53 AM,30.0,24.1,79,29.91,10.0,NW,17.3,23.0,N/A,,Overcast,320,2013-11-27 05:53:00
1:07 AM,30.2,23.0,75,29.89,10.0,NW,12.7,-,N/A,,Overcast,320,2013-11-27 06:07:00
1:31 AM,28.4,23.0,80,29.88,10.0,NNW,12.7,23.0,N/A,,Overcast,330,2013-11-27 06:31:00
1:53 AM,28.9,21.9,75,29.91,10.0,NW,15.0,20.7,N/A,,Overcast,320,2013-11-27 06:53:00
2:53 AM,28.0,19.9,72,29.92,10.0,NW,13.8,-,N/A,,Overcast,310,2013-11-27 07:53:00
3:44 AM,26.6,17.6,69,29.90,10.0,WNW,11.5,-,N/A,,Mostly Cloudy,300,2013-11-27 08:44:00
3:53 AM,26.1,18.0,71,29.91,10.0,WNW,12.7,-,N/A,,Overcast,300,2013-11-27 08:53:00
4:53 AM,26.1,19.0,75,29.92,10.0,NW,12.7,-,N/A,,Overcast,310,2013-11-27 09:53:00
5:53 AM,26.1,19.9,78,29.95,10.0,NW,10.4,-,0.00,Snow,Light Snow,310,2013-11-27 10:53:00
6:53 AM,26.1,19.0,75,29.97,10.0,NNW,19.6,25.3,0.00,,Overcast,330,2013-11-27 11:53:00
7:53 AM,25.0,15.1,66,30.00,10.0,NNW,15.0,24.2,0.00,,Overcast,340,2013-11-27 12:53:00
8:53 AM,25.0,14.0,63,30.01,10.0,NW,11.5,20.7,N/A,,Overcast,320,2013-11-27 13:53:00
9:53 AM,25.0,10.0,53,30.02,10.0,NNW,18.4,27.6,N/A,,Overcast,330,2013-11-27 14:53:00
10:53 AM,27.0,10.0,49,30.01,10.0,NW,18.4,26.5,N/A,,Clear,320,2013-11-27 15:53:00
11:53 AM,28.0,10.0,47,29.99,10.0,NNW,18.4,26.5,N/A,,Clear,330,2013-11-27 16:53:00
12:53 PM,28.9,10.0,45,29.99,10.0,NW,19.6,24.2,N/A,,Mostly Cloudy,320,2013-11-27 17:53:00
1:53 PM,28.0,10.0,47,29.99,10.0,NW,19.6,26.5,N/A,,Overcast,310,2013-11-27 18:53:00
2:53 PM,30.9,10.9,43,30.00,10.0,NNW,18.4,25.3,N/A,,Overcast,330,2013-11-27 19:53:00
3:53 PM,28.9,10.0,45,30.03,10.0,NNW,17.3,25.3,N/A,,Mostly Cloudy,330,2013-11-27 20:53:00
4:53 PM,28.0,10.9,49,30.06,10.0,NNW,13.8,20.7,N/A,,Clear,340,2013-11-27 21:53:00
5:53 PM,25.0,12.0,58,30.10,10.0,NNW,8.1,-,N/A,,Clear,340,2013-11-27 22:53:00
6:53 PM,23.0,12.0,63,30.13,10.0,NNW,5.8,-,N/A,,Scattered Clouds,330,2013-11-27 23:53:00
7:53 PM,21.0,12.0,68,30.14,10.0,WSW,4.6,-,N/A,,Scattered Clouds,250,2013-11-28 00:53:00
8:53 PM,24.1,14.0,65,30.17,10.0,WNW,5.8,-,N/A,,Overcast,290,2013-11-28 01:53:00
9:53 PM,21.9,12.9,68,30.19,10.0,West,4.6,-,N/A,,Scattered Clouds,270,2013-11-28 02:53:00
10:53 PM,19.0,12.9,77,30.21,10.0,West,6.9,-,N/A,,Partly Cloudy,280,2013-11-28 03:53:00
11:53 PM,19.0,12.9,77,30.23,10.0,West,4.6,-,N/A,,Clear,280,2013-11-28 04:53:00